QPF
0.00 0.00 0.00 0.00 0.01 0.01 0.01 0.02 0.04 0.05 0.03 0.02 0.02 0.02 0.03 0.02 0.02 0.03 0.03 0.03 0.03 0.02 0.02 0.01 0.01 0.02 0.03 0.03 0.04 0.04 0.04 0.04 0.05 0.09 0.11 0.11 0.12 0.11
0.00 0.00 0.00 0.00 0.00 0.01 0.01 0.01 0.02 0.04 0.03 0.03 0.02 0.02 0.02 0.01 0.01 0.02 0.02 0.02 0.01 0.01 0.01 0.01 0.01 0.01 0.01 0.02 0.02 0.03 0.03 0.03 0.03 0.04 0.06 0.08 0.10 0.12
0.00 0.00 0.00 0.00 0.00 0.00 0.01 0.01 0.01 0.02 0.02 0.02 0.01 0.01 0.02 0.02 0.01 0.01 0.01 0.02 0.02 0.01 0.01 0.01 0.01 0.01 0.01 0.01 0.01 0.01 0.02 0.03 0.04 0.03 0.03 0.05 0.07 0.07
0.00 0.00 0.00 0.00 0.00 0.00 0.00 0.00 0.01 0.02 0.02 0.02 0.01 0.01 0.01 0.02 0.02 0.02 0.02 0.02 0.02 0.02 0.01 0.01 0.01 0.01 0.01 0.01 0.02 0.01 0.01 0.01 0.02 0.03 0.03 0.03 0.04 0.05
0.00 0.00 0.00 0.00 0.00 0.00 0.00 0.00 0.00 0.01 0.01 0.01 0.01 0.01 0.01 0.02 0.02 0.02 0.01 0.02 0.02 0.02 0.01 0.01 0.01 0.01 0.01 0.01 0.01 0.02 0.01 0.01 0.02 0.03 0.03 0.04 0.04 0.04
0.00 0.00 0.00 0.00 0.00 0.00 0.00 0.00 0.00 0.00 0.00 0.01 0.01 0.01 0.01 0.01 0.01 0.02 0.02 0.03 0.03 0.02 0.02 0.01 0.01 0.01 0.01 0.01 0.01 0.01 0.01 0.01 0.01 0.02 0.04 0.03 0.04 0.04
0.00 0.00 0.00 0.00 0.00 0.00 0.00 0.00 0.00 0.00 0.00 0.00 0.00 0.01 0.01 0.01 0.01 0.01 0.01 0.02 0.03 0.02 0.03 0.03 0.03 0.03 0.02 0.01 0.01 0.01 0.01 0.01 0.01 0.01 0.03 0.04 0.03 0.03
0.00 0.00 0.00 0.00 0.00 0.00 0.00 0.00 0.00 0.00 0.00 0.00 0.00 0.01 0.01 0.01 0.01 0.01 0.01 0.01 0.01 0.01 0.02 0.03 0.03 0.03 0.03 0.03 0.02 0.01 0.01 0.01 0.01 0.01 0.01 0.02 0.02 0.02
0.00 0.00 0.00 0.00 0.00 0.00 0.00 0.00 0.00 0.00 0.00 0.00 0.00 0.00 0.01 0.01 0.01 0.01 0.01 0.01 0.01 0.01 0.01 0.02 0.02 0.02 0.02 0.02 0.02 0.02 0.02 0.02 0.01 0.01 0.01 0.01 0.01 0.02
0.00 0.00 0.00 0.00 0.00 0.00 0.00 0.00 0.00 0.00 0.00 0.00 0.00 0.00 0.01 0.01 0.02 0.02 0.02 0.01 0.00 0.00 0.01 0.02 0.02 0.02 0.02 0.03 0.03 0.02 0.02 0.02 0.02 0.01 0.02 0.02 0.02 0.02
0.00 0.00 0.00 0.00 0.00 0.00 0.00 0.00 0.00 0.00 0.00 0.00 0.00 0.00 0.00 0.00 0.01 0.02 0.02 0.02 0.01 0.01 0.01 0.02 0.02 0.03 0.03 0.03 0.03 0.03 0.02 0.02 0.02 0.02 0.02 0.02 0.03 0.03
0.00 0.00 0.00 0.00 0.00 0.00 0.00 0.00 0.00 0.01 0.01 0.00 0.00 0.00 0.00 0.01 0.01 0.01 0.02 0.03 0.02 0.02 0.02 0.02 0.02 0.03 0.03 0.04 0.04 0.04 0.03 0.02 0.02 0.02 0.02 0.02 0.02 0.02
0.00 0.00 0.00 0.00 0.00 0.00 0.00 0.00 0.00 0.01 0.01 0.01 0.01 0.00 0.00 0.01 0.01 0.01 0.01 0.02 0.03 0.02 0.03 0.04 0.03 0.04 0.04 0.04 0.05 0.05 0.03 0.03 0.02 0.02 0.02 0.02 0.02 0.02
0.00 0.00 0.00 0.00 0.00 0.00 0.00 0.00 0.00 0.01 0.01 0.01 0.01 0.01 0.01 0.01 0.01 0.01 0.01 0.01 0.01 0.01 0.03 0.05 0.05 0.04 0.05 0.05 0.04 0.04 0.04 0.04 0.04 0.03 0.02 0.02 0.02 0.02
0.00 0.00 0.00 0.00 0.00 0.00 0.00 0.00 0.00 0.00 0.00 0.01 0.01 0.01 0.01 0.01 0.01 0.02 0.01 0.01 0.01 0.01 0.01 0.03 0.04 0.05 0.06 0.06 0.05 0.04 0.04 0.04 0.03 0.04 0.04 0.03 0.02 0.01
0.00 0.00 0.00 0.00 0.00 0.00 0.00 0.00 0.00 0.00 0.00 0.00 0.01 0.01 0.02 0.02 0.02 0.02 0.02 0.01 0.01 0.01 0.01 0.02 0.04 0.05 0.06 0.06 0.07 0.05 0.05 0.05 0.04 0.04 0.05 0.05 0.04 0.03
0.00 0.00 0.00 0.00 0.00 0.00 0.00 0.00 0.00 0.00 0.00 0.00 0.01 0.01 0.01 0.01 0.01 0.01 0.02 0.02 0.02 0.02 0.02 0.03 0.04 0.05 0.05 0.07 0.08 0.07 0.06 0.05 0.05 0.05 0.05 0.06 0.05 0.04
0.00 0.00 0.00 0.00 0.00 0.00 0.00 0.00 0.00 0.00 0.00 0.00 0.01 0.01 0.01 0.01 0.01 0.01 0.02 0.02 0.02 0.02 0.03 0.03 0.06 0.06 0.06 0.06 0.06 0.05 0.06 0.06 0.06 0.07 0.07 0.06 0.05 0.04
0.00 0.00 0.00 0.00 0.00 0.00 0.01 0.01 0.01 0.01 0.01 0.01 0.01 0.01 0.01 0.02 0.03 0.03 0.02 0.02 0.03 0.03 0.03 0.05 0.07 0.07 0.08 0.08 0.05 0.04 0.05 0.07 0.07 0.08 0.08 0.07 0.05 0.04
0.00 0.00 0.00 0.00 0.00 0.01 0.01 0.01 0.01 0.01 0.01 0.01 0.01 0.02 0.02 0.03 0.04 0.04 0.03 0.04 0.04 0.04 0.04 0.04 0.05 0.06 0.06 0.06 0.06 0.04 0.04 0.07 0.08 0.08 0.09 0.08 0.07 0.07
0.00 0.00 0.00 0.00 0.01 0.01 0.01 0.01 0.01 0.01 0.01 0.01 0.02 0.02 0.02 0.02 0.03 0.04 0.05 0.05 0.05 0.05 0.04 0.04 0.04 0.06 0.07 0.08 0.08 0.06 0.05 0.05 0.07 0.08 0.09 0.09 0.09 0.08
0.00 0.00 0.00 0.01 0.01 0.01 0.01 0.01 0.01 0.01 0.01 0.02 0.02 0.02 0.02 0.02 0.03 0.04 0.04 0.05 0.05 0.05 0.05 0.05 0.05 0.06 0.08 0.09 0.09 0.09 0.08 0.06 0.07 0.08 0.08 0.08 0.07 0.06
0.00 0.01 0.01 0.01 0.01 0.01 0.01 0.02 0.02 0.02 0.02 0.02 0.02 0.02 0.02 0.02 0.03 0.03 0.04 0.04 0.05 0.05 0.06 0.07 0.07 0.07 0.07 0.08 0.10 0.11 0.12 0.10 0.10 0.10 0.07 0.06 0.05 0.04
MSLP
1020.98 1021.15 1021.35 1021.55 1021.74 1021.90 1021.99 1022.03 1022.01 1021.93 1021.82 1021.67 1021.50 1021.31 1021.12 1020.90 1020.68 1020.45 1020.23 1020.01 1019.81 1019.63 1019.48 1019.35 1019.23 1019.11 1018.98 1018.81 1018.62 1018.40 1018.18 1017.96 1017.79 1017.67 1017.63 1017.68 1017.81 1018.01
1021.16 1021.31 1021.50 1021.70 1021.90 1022.08 1022.20 1022.27 1022.28 1022.23 1022.12 1021.97 1021.79 1021.58 1021.35 1021.10 1020.84 1020.59 1020.34 1020.12 1019.92 1019.74 1019.60 1019.47 1019.34 1019.21 1019.05 1018.85 1018.62 1018.35 1018.07 1017.80 1017.57 1017.39 1017.29 1017.28 1017.34 1017.48
1021.27 1021.41 1021.58 1021.78 1021.97 1022.15 1022.30 1022.39 1022.42 1022.40 1022.32 1022.19 1022.02 1021.81 1021.57 1021.31 1021.05 1020.78 1020.52 1020.28 1020.06 1019.87 1019.70 1019.55 1019.39 1019.23 1019.03 1018.80 1018.53 1018.23 1017.93 1017.63 1017.36 1017.14 1016.99 1016.91 1016.91 1016.98
1021.34 1021.47 1021.63 1021.81 1022.00 1022.18 1022.32 1022.43 1022.48 1022.49 1022.44 1022.34 1022.19 1022.01 1021.79 1021.54 1021.28 1021.01 1020.73 1020.47 1020.23 1020.00 1019.79 1019.59 1019.39 1019.18 1018.94 1018.68 1018.38 1018.07 1017.75 1017.45 1017.17 1016.93 1016.75 1016.63 1016.57 1016.56
1021.38 1021.52 1021.67 1021.84 1022.02 1022.18 1022.32 1022.42 1022.49 1022.51 1022.49 1022.42 1022.31 1022.16 1021.97 1021.75 1021.50 1021.23 1020.95 1020.66 1020.38 1020.11 1019.84 1019.59 1019.33 1019.06 1018.79 1018.50 1018.19 1017.88 1017.57 1017.28 1017.01 1016.78 1016.58 1016.43 1016.31 1016.22
1021.40 1021.54 1021.69 1021.85 1022.01 1022.15 1022.27 1022.37 1022.44 1022.47 1022.47 1022.43 1022.35 1022.23 1022.07 1021.87 1021.64 1021.38 1021.09 1020.78 1020.47 1020.15 1019.83 1019.52 1019.21 1018.90 1018.59 1018.28 1017.97 1017.67 1017.38 1017.11 1016.87 1016.64 1016.44 1016.26 1016.09 1015.93
1021.35 1021.51 1021.66 1021.81 1021.94 1022.07 1022.17 1022.26 1022.32 1022.35 1022.35 1022.33 1022.27 1022.17 1022.04 1021.86 1021.64 1021.39 1021.09 1020.78 1020.44 1020.09 1019.73 1019.37 1019.02 1018.67 1018.34 1018.02 1017.71 1017.43 1017.16 1016.92 1016.69 1016.48 1016.27 1016.06 1015.84 1015.62
1021.20 1021.36 1021.52 1021.66 1021.79 1021.89 1021.98 1022.05 1022.10 1022.13 1022.13 1022.11 1022.06 1021.97 1021.85 1021.68 1021.48 1021.23 1020.94 1020.61 1020.26 1019.90 1019.52 1019.14 1018.76 1018.40 1018.05 1017.72 1017.42 1017.14 1016.89 1016.66 1016.44 1016.23 1016.00 1015.76 1015.50 1015.22
1020.88 1021.06 1021.22 1021.37 1021.49 1021.60 1021.68 1021.74 1021.78 1021.80 1021.80 1021.78 1021.72 1021.63 1021.51 1021.35 1021.14 1020.89 1020.61 1020.29 1019.95 1019.58 1019.21 1018.83 1018.45 1018.08 1017.73 1017.40 1017.09 1016.81 1016.55 1016.31 1016.07 1015.84 1015.59 1015.32 1015.01 1014.67
1020.39 1020.58 1020.75 1020.91 1021.04 1021.16 1021.25 1021.32 1021.36 1021.39 1021.38 1021.35 1021.29 1021.19 1021.05 1020.88 1020.67 1020.43 1020.15 1019.85 1019.52 1019.18 1018.82 1018.46 1018.10 1017.73 1017.38 1017.04 1016.72 1016.41 1016.12 1015.84 1015.57 1015.30 1015.01 1014.69 1014.35 1013.97
1019.73 1019.93 1020.12 1020.29 1020.45 1020.59 1020.71 1020.80 1020.87 1020.90 1020.90 1020.87 1020.80 1020.68 1020.54 1020.35 1020.13 1019.89 1019.62 1019.34 1019.04 1018.72 1018.40 1018.07 1017.72 1017.37 1017.02 1016.66 1016.30 1015.95 1015.61 1015.28 1014.95 1014.62 1014.28 1013.92 1013.54 1013.14
1018.94 1019.15 1019.36 1019.56 1019.75 1019.93 1020.09 1020.22 1020.31 1020.38 1020.39 1020.36 1020.29 1020.16 1020.00 1019.80 1019.57 1019.33 1019.07 1018.81 1018.54 1018.26 1017.97 1017.67 1017.35 1017.01 1016.64 1016.26 1015.86 1015.45 1015.05 1014.64 1014.25 1013.86 1013.46 1013.07 1012.66 1012.24
1018.07 1018.29 1018.53 1018.76 1018.99 1019.21 1019.41 1019.58 1019.72 1019.81 1019.86 1019.84 1019.77 1019.64 1019.47 1019.26 1019.03 1018.79 1018.54 1018.30 1018.06 1017.81 1017.56 1017.28 1016.98 1016.64 1016.25 1015.83 1015.38 1014.91 1014.43 1013.95 1013.49 1013.04 1012.60 1012.18 1011.75 1011.33
1017.17 1017.41 1017.67 1017.93 1018.19 1018.45 1018.69 1018.90 1019.08 1019.21 1019.28 1019.28 1019.22 1019.10 1018.93 1018.72 1018.49 1018.26 1018.03 1017.81 1017.60 1017.38 1017.15 1016.89 1016.59 1016.24 1015.83 1015.36 1014.85 1014.31 1013.76 1013.22 1012.70 1012.20 1011.73 1011.29 1010.86 1010.44
1016.26 1016.52 1016.80 1017.08 1017.36 1017.64 1017.91 1018.16 1018.37 1018.53 1018.62 1018.65 1018.60 1018.50 1018.34 1018.15 1017.95 1017.73 1017.53 1017.34 1017.15 1016.95 1016.74 1016.48 1016.17 1015.78 1015.33 1014.81 1014.23 1013.63 1013.01 1012.41 1011.84 1011.32 1010.83 1010.39 1009.96 1009.55
1015.34 1015.62 1015.91 1016.20 1016.49 1016.78 1017.06 1017.32 1017.55 1017.72 1017.84 1017.89 1017.88 1017.80 1017.68 1017.52 1017.35 1017.18 1017.01 1016.85 1016.68 1016.50 1016.28 1016.01 1015.66 1015.23 1014.72 1014.13 1013.48 1012.81 1012.13 1011.48 1010.88 1010.33 1009.85 1009.41 1009.00 1008.61
1014.38 1014.68 1014.97 1015.26 1015.55 1015.83 1016.11 1016.37 1016.59 1016.78 1016.91 1016.99 1017.01 1016.98 1016.90 1016.81 1016.69 1016.57 1016.45 1016.32 1016.18 1016.00 1015.76 1015.45 1015.05 1014.54 1013.95 1013.27 1012.54 1011.78 1011.04 1010.35 1009.72 1009.17 1008.69 1008.27 1007.88 1007.50
1013.31 1013.64 1013.94 1014.23 1014.51 1014.78 1015.04 1015.28 1015.50 1015.69 1015.84 1015.94 1016.00 1016.03 1016.02 1016.00 1015.96 1015.91 1015.84 1015.76 1015.63 1015.44 1015.17 1014.79 1014.30 1013.70 1012.98 1012.19 1011.35 1010.50 1009.69 1008.94 1008.28 1007.72 1007.25 1006.85 1006.50 1006.15
1012.11 1012.47 1012.79 1013.08 1013.36 1013.62 1013.86 1014.09 1014.30 1014.49 1014.65 1014.79 1014.91 1015.00 1015.07 1015.13 1015.18 1015.21 1015.21 1015.16 1015.04 1014.83 1014.50 1014.03 1013.43 1012.69 1011.83 1010.90 1009.92 1008.95 1008.05 1007.23 1006.53 1005.95 1005.49 1005.12 1004.80 1004.49
1010.76 1011.16 1011.51 1011.83 1012.11 1012.37 1012.61 1012.83 1013.04 1013.24 1013.43 1013.61 1013.78 1013.94 1014.11 1014.26 1014.40 1014.51 1014.57 1014.55 1014.43 1014.17 1013.76 1013.19 1012.44 1011.54 1010.51 1009.40 1008.27 1007.16 1006.14 1005.24 1004.48 1003.89 1003.43 1003.09 1002.81 1002.55
1009.27 1009.73 1010.13 1010.49 1010.81 1011.09 1011.35 1011.58 1011.80 1012.02 1012.23 1012.45 1012.69 1012.93 1013.17 1013.42 1013.64 1013.82 1013.93 1013.93 1013.79 1013.48 1012.98 1012.27 1011.36 1010.28 1009.07 1007.77 1006.46 1005.20 1004.05 1003.05 1002.24 1001.61 1001.16 1000.85 1000.63 1000.44
1007.69 1008.22 1008.70 1009.12 1009.50 1009.83 1010.12 1010.38 1010.63 1010.88 1011.13 1011.39 1011.68 1011.99 1012.31 1012.62 1012.91 1013.15 1013.29 1013.30 1013.13 1012.75 1012.14 1011.29 1010.23 1008.97 1007.56 1006.08 1004.60 1003.18 1001.91 1000.81 999.94 999.29 998.84 998.57 998.42 998.34
1006.08 1006.69 1007.26 1007.77 1008.23 1008.62 1008.97 1009.28 1009.57 1009.85 1010.14 1010.45 1010.78 1011.13 1011.50 1011.87 1012.21 1012.47 1012.63 1012.62 1012.41 1011.96 1011.24 1010.27 1009.05 1007.63 1006.06 1004.42 1002.79 1001.24 999.86 998.69 997.77 997.11 996.69 996.47 996.41 996.43
Thickness
5694 5693 5691 5691 5691 5690 5690 5688 5683 5679 5681 5688 5691 5695 5696 5697 5697 5698 5699 5700 5701 5703 5704 5705 5706 5707 5708 5710 5712 5713 5715 5716 5718 5719 5720 5721 5722 5722
5692 5690 5689 5688 5688 5687 5687 5686 5684 5680 5677 5683 5686 5689 5691 5692 5692 5693 5694 5695 5696 5698 5699 5700 5701 5702 5703 5705 5706 5708 5709 5711 5712 5714 5715 5716 5717 5718
5690 5688 5686 5686 5684 5683 5683 5682 5681 5679 5675 5678 5682 5684 5685 5685 5686 5687 5688 5690 5691 5692 5694 5695 5696 5697 5698 5699 5700 5702 5704 5705 5706 5708 5709 5711 5712 5713
5686 5684 5682 5682 5680 5679 5678 5677 5676 5676 5673 5671 5674 5676 5677 5678 5679 5680 5682 5683 5685 5686 5688 5689 5690 5691 5692 5693 5694 5696 5698 5700 5701 5702 5704 5705 5706 5707
5683 5681 5679 5677 5674 5674 5673 5671 5670 5671 5669 5667 5667 5669 5670 5671 5671 5672 5674 5675 5676 5678 5680 5681 5682 5684 5685 5686 5688 5690 5692 5693 5695 5697 5698 5699 5701 5702
5680 5677 5675 5672 5670 5668 5667 5665 5664 5663 5662 5660 5659 5660 5661 5662 5662 5661 5662 5664 5666 5669 5670 5672 5674 5675 5677 5679 5681 5682 5684 5686 5688 5690 5691 5693 5694 5695
5674 5673 5671 5668 5666 5663 5661 5658 5656 5654 5653 5651 5650 5650 5650 5650 5649 5651 5651 5653 5655 5657 5659 5661 5663 5666 5668 5670 5672 5674 5676 5678 5680 5682 5683 5685 5687 5689
5668 5666 5665 5662 5660 5658 5656 5653 5651 5647 5644 5642 5640 5639 5640 5640 5640 5640 5639 5639 5640 5645 5645 5648 5651 5654 5657 5660 5663 5665 5667 5669 5671 5673 5675 5677 5678 5680
5662 5660 5659 5656 5653 5650 5649 5647 5644 5641 5639 5636 5633 5631 5630 5630 5629 5628 5626 5625 5627 5631 5631 5635 5639 5642 5646 5650 5652 5654 5656 5658 5660 5662 5665 5667 5669 5671
5657 5654 5651 5648 5646 5643 5641 5639 5636 5634 5632 5630 5627 5625 5623 5621 5618 5616 5615 5615 5618 5619 5618 5619 5625 5628 5634 5637 5639 5642 5644 5646 5648 5651 5654 5656 5659 5661
5650 5648 5644 5640 5638 5636 5632 5629 5627 5626 5624 5622 5619 5616 5614 5611 5608 5604 5602 5600 5602 5605 5606 5605 5610 5614 5619 5624 5627 5629 5631 5633 5636 5638 5642 5645 5648 5650
5643 5640 5637 5633 5630 5626 5622 5619 5616 5615 5614 5612 5609 5607 5604 5601 5598 5593 5590 5588 5588 5591 5593 5591 5594 5595 5601 5610 5613 5614 5616 5618 5622 5625 5629 5633 5636 5638
5635 5631 5628 5625 5621 5618 5614 5610 5607 5606 5604 5601 5598 5596 5593 5590 5587 5584 5581 5577 5576 5577 5579 5578 5578 5579 5580 5589 5596 5599 5601 5604 5608 5612 5616 5620 5624 5626
5627 5624 5620 5617 5613 5609 5606 5602 5600 5596 5592 5589 5586 5583 5580 5577 5575 5573 5570 5567 5566 5565 5566 5565 5564 5565 5566 5571 5577 5584 5586 5589 5593 5597 5602 5606 5610 5615
5618 5615 5612 5608 5605 5601 5598 5594 5590 5585 5581 5577 5574 5571 5568 5566 5563 5561 5559 5557 5556 5555 5555 5554 5553 5553 5554 5556 5562 5566 5570 5575 5578 5582 5587 5591 5596 5601
5609 5606 5603 5599 5595 5592 5589 5585 5581 5576 5571 5566 5563 5560 5557 5554 5550 5547 5545 5544 5543 5544 5543 5542 5541 5541 5542 5545 5547 5551 5554 5558 5564 5567 5571 5576 5582 5588
5600 5596 5592 5589 5585 5582 5579 5575 5571 5566 5561 5556 5552 5548 5544 5541 5538 5535 5532 5530 5528 5529 5529 5529 5529 5529 5531 5532 5534 5537 5540 5544 5548 5551 5555 5561 5568 5574
5591 5586 5583 5579 5576 5572 5568 5564 5560 5555 5550 5545 5540 5536 5531 5528 5525 5523 5519 5517 5515 5515 5515 5515 5514 5515 5517 5521 5521 5523 5525 5529 5533 5536 5540 5544 5553 5560
5581 5577 5574 5570 5566 5562 5558 5553 5549 5544 5539 5534 5529 5524 5520 5517 5513 5510 5507 5504 5503 5502 5502 5501 5499 5498 5501 5508 5513 5511 5511 5515 5518 5522 5525 5530 5538 5547
5572 5568 5565 5561 5556 5552 5547 5542 5537 5533 5528 5523 5518 5513 5508 5505 5501 5498 5495 5492 5491 5490 5490 5489 5488 5487 5487 5492 5498 5502 5501 5502 5504 5508 5513 5517 5524 5533
5565 5560 5556 5551 5546 5541 5536 5531 5526 5521 5516 5511 5506 5501 5497 5493 5490 5486 5483 5481 5479 5478 5479 5480 5480 5479 5479 5480 5483 5490 5492 5492 5494 5496 5500 5504 5510 5517
5556 5551 5546 5541 5536 5530 5525 5520 5515 5510 5505 5500 5495 5490 5485 5481 5478 5475 5472 5470 5468 5467 5468 5469 5470 5469 5468 5469 5473 5477 5482 5484 5485 5488 5491 5494 5498 5506
5546 5541 5536 5530 5525 5519 5514 5509 5504 5499 5494 5489 5484 5479 5475 5471 5468 5465 5463 5461 5459 5458 5458 5459 5460 5460 5461 5462 5464 5467 5471 5475 5476 5479 5484 5488 5492 5497